Orbital Elements at Epoch 2459200.5 (2020-Dec-17.0) TDB
Reference: JPL 32 (heliocentric ecliptic J2000)
Element | Value | Uncertainty (1-sigma) | Units |
e | .1179210828292351 | 3.767e-08 | |
a | 3.074401029963266 | 1.5649e-08 | au |
q | 2.711864331458682 | 1.1198e-07 | au |
i | 1.149413502888559 | 3.8167e-06 | deg |
node | 232.0124206941783 | 0.00017865 | deg |
peri | 100.8488119467084 | 0.00017938 | deg |
M | 52.49628381545563 | 1.5438e-05 | deg |
tp | 2458913.378798601941 (2020-Mar-04.87879860) | 8.439e-05 | TDB |
period | 1968.970467827091 5.39 | 1.5033e-05 4.116e-08 | d yr |
n | .1828366681381907 | 1.3959e-09 | deg/d |
Q | 3.43693772846785 | 1.7494e-08 | au |
|
| | Orbit Determination Parameters
Additional Information
|